[[{"header":{"parameterUnit":"m.s-1","parameterCategory":1,"la1":30.2991,"la2":30.254,"lo1":-89.0895,"lo2":-89.0444,"dy":0.0017,"dx":0.0017,"nx":28,"ny":28,"refTime":"2025-08-07T09:00:00:Z","depth":0,"parameterNumber":2,"parameterNumberName":"U-component_of_WINDS"},"data":[0,0,0,0,0,0,0,0,0,0,0,0,0,0,0,0,0,0,0,0,0,0,0,0,0,0,0,0,0,0,0,0,0,0,0,0,0,0,0,0,0,0,0,0,0,0,0,0,0,0,0,0,0,0,0,0,0,0,-1.2975,-1.2976,0,-1.3053,-1.3054,-1.3055,-1.3068,-1.3067,-1.3066,-1.3066,-1.315,-1.3153,-1.3156,0,0,0,0,0,0,0,0,0,0,0,0,0,-1.2842,-1.2845,-1.2975,-1.2976,-1.2977,-1.3053,-1.3054,-1.3055,-1.3068,-1.3067,-1.3066,-1.3066,-1.3149,-1.3153,-1.3156,0,0,0,0,0,0,0,0,0,0,0,0,0,-1.2908,-1.2845,-1.2975,-1.2993,-1.2995,-1.3053,-1.3054,-1.3055,-1.3068,-1.3067,-1.3066,-1.3065,-1.3148,-1.3152,-1.3157,-1.3204,0,0,-1.317,-1.3172,0,0,0,0,0,0,0,0,-1.2904,-1.2913,-1.2989,-1.2991,-1.2994,-1.305,-1.3038,-1.3105,-1.3068,-1.304,-1.3066,-1.3065,-1.3118,-1.3125,-1.3142,-1.3208,-1.3211,-1.317,-1.3173,-1.3175,-1.3176,0,0,0,0,0,0,0,-1.29,-1.291,-1.3006,-1.299,-1.2993,-1.2998,-1.3006,-1.3051,-1.3084,-1.3043,-1.3044,-1.3053,-1.3119,-1.3137,-1.3144,-1.3213,-1.317,-1.3174,-1.3177,-1.3178,-1.3322,-1.3323,0,0,0,0,0,0,-1.2891,-1.2906,-1.3004,-1.3008,-1.2946,-1.3001,-1.301,-1.3033,-1.3084,-1.309,-1.3054,-1.3053,-1.3131,-1.3139,-1.3147,-1.3205,-1.3175,-1.3179,-1.3181,-1.3321,-1.3322,-1.3323,0,0,0,0,0,0,-1.2889,-1.29,-1.3,-1.2957,-1.2971,-1.3005,-1.303,-1.3035,-1.3053,-1.3092,-1.3098,-1.3066,-1.313,-1.3141,-1.3189,-1.3208,-1.3181,-1.3185,-1.3319,-1.3321,-1.3323,-1.3323,0,0,0,0,0,0,-1.2885,-1.2899,-1.2916,-1.2958,-1.2973,-1.304,-1.3031,-1.3037,-1.306,-1.306,-1.3105,-1.3111,-1.313,-1.3183,-1.3194,-1.3214,-1.3188,-1.3318,-1.332,-1.3322,-1.3321,-1.3324,-1.3327,0,0,0,0,0,-1.288,-1.2914,-1.2917,-1.2928,-1.2995,-1.3041,-1.305,-1.307,-1.3061,-1.308,-1.3105,-1.311,-1.3205,-1.3188,-1.32,-1.3222,-1.3317,-1.3319,-1.3322,-1.332,-1.3324,-1.3327,0,0,0,0,0,0,-1.2875,-1.292,-1.2923,-1.2971,-1.3002,-1.3043,-1.3067,-1.3073,-1.3108,-1.3107,-1.3131,-1.3141,-1.3189,-1.321,-1.319,-1.327,-1.326,-1.3266,-1.3254,-1.3258,-1.3261,-1.3255,-1.3192,0,0,0,0,0,-1.2879,-1.2912,-1.295,-1.2989,-1.3004,-1.3033,-1.3054,-1.3066,-1.3099,-1.3113,-1.3141,-1.3175,-1.3212,-1.3237,-1.3273,-1.3325,-1.3335,-1.3346,-1.3349,-1.3351,-1.3355,-1.3385,-1.339,-1.3333,-1.3333,-1.3332,0,0,-1.2889,-1.2917,-1.2937,-1.2988,-1.3014,-1.3048,-1.3044,-1.308,-1.3107,-1.3119,-1.3166,-1.3188,-1.3228,-1.3278,-1.3301,-1.3297,-1.3374,-1.3354,-1.3356,-1.3359,-1.3388,-1.3393,-1.3398,-1.3334,-1.3334,-1.3334,0,0,-1.2924,-1.2949,-1.2984,-1.3009,-1.3047,-1.3066,-1.3074,-1.3114,-1.3129,-1.3176,-1.3186,-1.3219,-1.3283,-1.331,-1.3333,-1.3379,-1.3385,-1.339,-1.3405,-1.3434,-1.3438,-1.3442,-1.3459,-1.3465,-1.3394,-1.3394,-1.3394,0,-1.2932,-1.2983,-1.3001,-1.3037,-1.306,-1.3072,-1.3108,-1.3132,-1.3181,-1.3197,-1.3192,-1.3272,-1.3299,-1.3356,-1.3367,-1.3385,-1.3396,-1.3385,-1.3436,-1.344,-1.3444,-1.3461,-1.3467,-1.3395,-1.3395,-1.3395,-1.3395,0,-1.299,-1.3026,-1.305,-1.3094,-1.312,-1.3156,-1.3182,-1.3206,-1.3216,-1.3236,-1.3285,-1.3318,-1.3362,-1.3376,-1.3387,-1.3435,-1.3431,-1.343,-1.3421,-1.345,-1.3465,-1.3472,-1.3395,-1.3395,-1.3395,-1.3395,0,0,-1.3025,-1.3079,-1.3087,-1.3108,-1.3151,-1.3179,-1.3216,-1.3257,-1.3278,-1.3311,-1.3344,-1.3397,-1.3397,-1.3422,-1.3437,-1.3462,-1.3496,-1.3458,-1.3459,-1.3464,-1.3552,-1.3552,-1.3559,-1.3501,-1.3502,-1.3503,-1.3548,0,-1.3065,-1.313,-1.3148,-1.3203,-1.3237,-1.3248,-1.3281,-1.3311,-1.3331,-1.3364,-1.3387,-1.3424,-1.342,-1.3436,-1.3461,-1.3486,-1.3514,-1.3484,-1.3533,-1.3534,-1.3522,-1.3567,-1.3567,-1.3608,-1.3555,-1.3556,-1.3556,0,-1.3121,-1.3153,-1.3211,-1.325,-1.3264,-1.3293,-1.3332,-1.3363,-1.3398,-1.3411,-1.3439,-1.3452,-1.3493,-1.348,-1.3538,-1.3517,-1.3538,-1.3554,-1.3556,-1.3561,-1.3547,-1.3574,-1.3622,-1.3628,-1.3566,-1.3565,-1.3565,0,-1.314,-1.3199,-1.3241,-1.3258,-1.3304,-1.3324,-1.3344,-1.3379,-1.3402,-1.3437,-1.3453,-1.3493,-1.3515,-1.3546,-1.3569,-1.3558,-1.3625,-1.3615,-1.3638,-1.3638,-1.3652,-1.3651,-1.3704,-1.3665,-1.3665,-1.3665,-1.3665,0,-1.3183,-1.3218,-1.325,-1.3276,-1.3317,-1.3338,-1.3378,-1.3399,-1.3429,-1.3461,-1.3474,-1.3504,-1.3532,-1.3567,-1.3585,-1.363,-1.364,-1.3653,-1.3658,-1.3652,-1.365,-1.3666,-1.3664,-1.3667,-1.3666,-1.3666,-1.3666,0,-1.3211,-1.3234,-1.3281,-1.332,-1.3331,-1.3359,-1.3393,-1.342,-1.344,-1.348,-1.3491,-1.3523,-1.3564,-1.359,-1.3643,-1.3655,-1.3705,-1.3709,-1.3692,-1.3694,-1.3716,-1.3714,-1.3782,-1.3793,-1.3746,-1.3747,-1.3747,0,-1.3237,-1.3264,-1.3306,-1.3327,-1.3347,-1.3381,-1.3405,-1.3427,-1.3452,-1.3494,-1.3516,-1.3558,-1.3592,-1.3657,-1.3686,-1.3727,-1.3732,-1.3753,-1.3738,-1.3732,-1.3733,-1.3731,-1.3734,-1.3755,-1.3756,-1.3756,-1.3756,0,-1.3281,-1.3291,-1.3323,-1.336,-1.3388,-1.3418,-1.3449,-1.3466,-1.3494,-1.3521,-1.3562,-1.3588,-1.3641,-1.3683,-1.3726,-1.3749,-1.3758,-1.3761,-1.3768,-1.3763,-1.3752,-1.3759,-1.3699,-1.3759,-1.3759,-1.3759,-1.3759,-1.3758,-1.3309,-1.3334,-1.3367,-1.3403,-1.3428,-1.3456,-1.3483,-1.3506,-1.354,-1.3584,-1.3596,-1.3639,-1.3675,-1.3733,-1.3757,-1.3792,-1.3789,-1.38,-1.3803,-1.3806,-1.3806,-1.3746,-1.38,-1.38,-1.38,-1.38,-1.38,0,-1.3354,-1.3375,-1.3408,-1.345,-1.3479,-1.3483,-1.3517,-1.3542,-1.3579,-1.361,-1.3643,-1.3691,-1.3731,-1.3764,-1.3805,-1.3828,-1.3833,-1.3838,-1.3837,-1.3842,-1.3806,-1.3795,-1.3833,-1.3833,-1.3833,-1.3833,-1.3833,-1.3833,-1.338,-1.3422,-1.3436,-1.3491,-1.3513,-1.3554,-1.3573,-1.36,-1.3626,-1.3677,-1.371,-1.373,-1.3763,-1.3807,-1.3845,-1.3854,-1.3869,-1.3873,-1.3882,-1.3848,-1.3844,-1.3841,-1.3831,-1.3876,-1.3876,-1.3916,-1.3916,-1.3917]},{"header":{"parameterUnit":"m.s-1","parameterCategory":1,"la1":30.2991,"la2":30.254,"lo1":-89.0895,"lo2":-89.0444,"dy":0.0017,"dx":0.0017,"nx":28,"ny":28,"refTime":"2025-08-07T09:00:00:Z","depth":0,"parameterNumber":3,"parameterNumberName":"V-component_of_WINDS"},"data":[0,0,0,0,0,0,0,0,0,0,0,0,0,0,0,0,0,0,0,0,0,0,0,0,0,0,0,0,0,0,0,0,0,0,0,0,0,0,0,0,0,0,0,0,0,0,0,0,0,0,0,0,0,0,0,0,0,0,3.0158,3.0158,0,3.0179,3.0179,3.018,3.0211,3.0211,3.0212,3.0212,3.0229,3.0229,3.0229,0,0,0,0,0,0,0,0,0,0,0,0,0,3.014,3.014,3.0158,3.0158,3.0158,3.0179,3.0179,3.018,3.0211,3.0211,3.0212,3.0213,3.0229,3.0229,3.0229,0,0,0,0,0,0,0,0,0,0,0,0,0,3.0153,3.014,3.0158,3.0176,3.0178,3.0179,3.0179,3.018,3.0211,3.0211,3.0212,3.0213,3.0229,3.0229,3.0229,3.0212,0,0,3.0229,3.0229,0,0,0,0,0,0,0,0,3.0152,3.0154,3.0173,3.0175,3.0177,3.0193,3.0179,3.019,3.021,3.0198,3.0212,3.0213,3.0216,3.0217,3.0219,3.0213,3.0213,3.0229,3.0229,3.0229,3.0229,0,0,0,0,0,0,0,3.0151,3.0153,3.0166,3.0174,3.0176,3.0183,3.0185,3.0182,3.0202,3.0199,3.0202,3.0204,3.0217,3.0219,3.022,3.0214,3.0229,3.0229,3.0229,3.0229,3.0195,3.0194,0,0,0,0,0,0,3.0148,3.0152,3.0165,3.0167,3.0167,3.0182,3.0185,3.0187,3.0202,3.0205,3.0203,3.0205,3.0219,3.022,3.0221,3.0202,3.0229,3.0229,3.0229,3.0196,3.0195,3.0194,0,0,0,0,0,0,3.0148,3.0149,3.0164,3.016,3.0163,3.0182,3.0183,3.0187,3.0189,3.0205,3.0209,3.0202,3.022,3.0221,3.0214,3.0203,3.0229,3.0228,3.0197,3.0195,3.0194,3.0163,0,0,0,0,0,0,3.0147,3.0149,3.0143,3.016,3.0163,3.0159,3.0183,3.0187,3.0189,3.0192,3.0205,3.0208,3.0221,3.0214,3.0214,3.0203,3.0228,3.0198,3.0196,3.0195,3.0166,3.0161,3.0158,0,0,0,0,0,3.0146,3.0132,3.0143,3.0144,3.0156,3.0158,3.0159,3.0176,3.0188,3.0182,3.0193,3.0207,3.0205,3.0213,3.0214,3.0202,3.0198,3.0196,3.0195,3.0167,3.0162,3.0158,0,0,0,0,0,0,3.0111,3.0134,3.0146,3.0137,3.0146,3.0163,3.0156,3.017,3.0174,3.0176,3.0195,3.0198,3.0189,3.0195,3.0205,3.0187,3.0204,3.0202,3.0183,3.0178,3.0174,3.0172,3.0228,0,0,0,0,0,3.0103,3.0104,3.0124,3.0114,3.0118,3.0136,3.0137,3.015,3.0159,3.0162,3.0172,3.0179,3.018,3.0179,3.0181,3.0167,3.017,3.016,3.0156,3.0152,3.015,3.0144,3.0139,3.0188,3.0188,3.0188,0,0,3.0084,3.0097,3.0096,3.0107,3.0115,3.0114,3.0139,3.0137,3.0136,3.0161,3.0156,3.0164,3.0173,3.0163,3.0159,3.0168,3.0138,3.015,3.0147,3.0147,3.0141,3.0137,3.0133,3.0186,3.0186,3.0187,0,0,3.005,3.0061,3.0054,3.0062,3.0075,3.0088,3.0087,3.0103,3.0109,3.0106,3.0124,3.0124,3.0125,3.013,3.0133,3.0105,3.0118,3.0105,3.0083,3.0077,3.0073,3.007,3.0059,3.0055,3.0103,3.0103,3.0102,0,3.0025,3.0027,3.0048,3.0046,3.005,3.0075,3.0068,3.0075,3.0086,3.0088,3.0099,3.0102,3.0109,3.0101,3.0095,3.0096,3.0095,3.0102,3.0072,3.0069,3.0066,3.0056,3.0052,3.0101,3.0101,3.0101,3.0101,0,2.9995,2.9996,2.9989,3.0003,3.0006,3.0001,3.0021,3.0022,3.0035,3.0047,3.0042,3.0053,3.0057,3.0057,3.0068,3.0051,3.0056,3.0069,3.0086,3.006,3.0051,3.0047,3.0098,3.0099,3.01,3.01,0,0,2.9937,2.9965,2.9962,2.9969,2.9986,2.9986,2.9983,2.999,2.999,2.9998,2.9995,2.9996,3.0009,3.0013,3.0026,3.002,2.9997,3.0034,3.0035,3.0026,2.9978,2.9967,2.9962,3.0007,3.0006,3.0006,2.9977,0,2.9906,2.9903,2.9923,2.9915,2.9916,2.9941,2.9938,2.9948,2.9959,2.9961,2.9973,2.9974,2.9991,2.9993,2.9989,3.0001,2.9987,3.0003,3.0003,3.0002,2.9998,2.9958,2.9946,2.9918,2.9974,2.9973,2.9973,0,2.9868,2.9877,2.9869,2.9888,2.9889,2.9887,2.9895,2.9897,2.9909,2.9917,2.9923,2.9938,2.9936,2.9954,2.995,2.996,2.9961,2.9967,2.9967,2.9966,2.9985,2.9955,2.991,2.9905,2.9967,2.9968,2.9968,0,2.9826,2.9836,2.9832,2.9838,2.986,2.9858,2.9866,2.9879,2.9883,2.989,2.9892,2.9898,2.9901,2.9905,2.9922,2.9933,2.9916,2.9935,2.9922,2.9921,2.9915,2.9915,2.9869,2.9918,2.9918,2.9918,2.9918,0,2.9788,2.9782,2.9814,2.9812,2.9806,2.9829,2.9822,2.9834,2.9845,2.9845,2.9867,2.9866,2.9889,2.989,2.9903,2.9898,2.9899,2.9905,2.9909,2.9903,2.9902,2.9902,2.9904,2.9917,2.9917,2.9918,2.9918,0,2.9739,2.976,2.9758,2.9781,2.9787,2.9781,2.98,2.9798,2.9813,2.9812,2.9813,2.9834,2.9837,2.9855,2.9861,2.987,2.986,2.9867,2.9856,2.9858,2.9844,2.9844,2.9795,2.9789,2.9843,2.9843,2.9842,0,2.9713,2.9709,2.9733,2.9735,2.9744,2.9747,2.9752,2.9775,2.9778,2.9793,2.9789,2.9795,2.98,2.9803,2.9818,2.9823,2.983,2.9813,2.9831,2.9826,2.9829,2.9829,2.9828,2.9808,2.9808,2.9807,2.9807,0,2.9664,2.9675,2.9682,2.9692,2.9697,2.9706,2.9716,2.9716,2.9742,2.9745,2.9749,2.9754,2.9762,2.9766,2.9775,2.9783,2.9798,2.9801,2.9798,2.9791,2.9785,2.9787,2.9844,2.9802,2.9802,2.9802,2.9803,2.9803,2.9625,2.9623,2.964,2.9646,2.9657,2.9666,2.9667,2.9682,2.9687,2.9696,2.971,2.9713,2.9725,2.9739,2.9746,2.9747,2.9756,2.9752,2.9751,2.9749,2.9746,2.9786,2.9749,2.9749,2.9749,2.975,2.975,0,2.9576,2.9589,2.9595,2.961,2.9615,2.9633,2.9645,2.9648,2.9651,2.9662,2.9668,2.9674,2.9679,2.9695,2.9702,2.97,2.9708,2.9701,2.97,2.9702,2.9738,2.9739,2.9695,2.9695,2.9695,2.9695,2.9695,2.9695,2.9551,2.955,2.9563,2.9567,2.958,2.9584,2.959,2.9599,2.9608,2.9614,2.962,2.9632,2.9645,2.9653,2.9659,2.9664,2.9664,2.9655,2.9662,2.9694,2.9699,2.9704,2.9706,2.9655,2.9655,2.9626,2.9626,2.9625]}]]